Thursday, April 24, 2014
13:06 UTC
  |  Log In   |  Register Free
Airport Search:

Richmond Municipal Airport
(KRID)

Richmond Municipal Airport Diagram
No Airport Diagram Available

FAA data valid effective April 3, 2014 until May 29, 2014 (unless otherwise noted).

 
 
 
 
 
 
 
 
 
 
 
 
 
 

Current Aviation Weather for Richmond Municipal Airport (KRID)

The most recent METAR observation for KMWO was updated at: 1255 UTC
METAR Summary (Translated METAR)
KMWO
241255Z AUTO 12008KT 10SM BKN120 09/M05 A3015 RMK AO2 T00871047
KMGY
(8.6 nm NE from KMWO)
241253Z AUTO 12012KT 10SM CLR 08/M03 A3011 RMK AO2 SLP200 T00831028
TAF
No TAF information found within 50 nm of KMWO
  Airport Weather Conditions for KRID

Current weather conditions are
not available for RID


The nearest NOAA weather station
is at MWO, (24.7 nm SE from RID)
  
 Current Weather at MWO
48° F
Overcast
East winds at 4.6 mph
MWO NOAA Radar

Pressure: 30.14 in
Humidity: 43%
Wind: East at 4.6 MPH (4 KT)
Dew Point: 25.9°F
Visibility: 10.00 mi


Airport Weather Forecast for KRID

Translated METAR and TAF for KMWO
Translated METAR for KMWO (1307 UTC 24 April 2014)
found at http://aviationweather.gov/adds/metars/
 
METAR text: KMWO 241255Z AUTO 12008KT 10SM BKN120 09/M05 A3015 RMK AO2 T00871047
Conditions at: KMWO (MIDDLETOWN/HOOK , OH, US) observed 1255 UTC 24 April 2014
Temperature: 8.7°C (48°F)
Dewpoint: -4.7°C (24°F) [RH = 38%]
Pressure (altimeter): 30.15 inches Hg (1021.1 mb)
Winds: from the ESE (120 degrees) at 9 MPH (8 knots; 4.2 m/s)
Visibility: 10 or more miles (16+ km)
Ceiling: 12000 feet AGL
Clouds: broken clouds at 12000 feet AGL
Weather: automated observation with no human augmentation;
there may or may not be significant weather present at this time
Translated TAF for KMWO

There is no translated TAF available for this airport

Find All Airport Services Find A Hotel Find A Rental Car Find A Golf Course Find A Restaurant $100 Hamburger



FBO's on the Field
FBO Company Facility Photos Services Transportation Aviation Fuel Prices: Prices include tax
Catering Weather Repair Courtesy Rental Type 100LL JetA JetA+ MOGAS 8087
 
Richmond Municipal Airport

This FBO has not yet been rated
FS:Phillips66
Last Updated: Apr-18
Login to update fuel prices
SS:
Contact Richmond Municipal AirportMore FBO Information
 
Add another FBO Facility Photos Catering Weather Repair Courtesy Rental Type 100LL JetA JetA+ MOGAS 8087
Services Transportation Aviation Fuel Prices: Prices include tax


GlobalAir.com Airport Resource Center model-print
model-print
model-print
model-print